Regional Weather Roundup
Issued by NWS

Home | Current Version | Previous Version | Text Only | Print | Product List | Glossary Off
Versions: 1 2 3 4 5 6 7 8 9 10 11 12 13 14 15 16 17 18 19 20 21 22 23 24 25 26 27 28 29 30 31 32 33 34 35 36 37 38 39 40 41 42 43 44 45 46 47 48 49 50

000
ASUS43 KLMK 251910
RWRKY
KENTUCKY REGIONAL WEATHER ROUNDUP
NATIONAL WEATHER SERVICE LOUISVILLE KY
300 PM EDT SAT APR 25 2015

NOTE "FAIR" INDICATES FEW OR NO CLOUDS BELOW 12,000 FEET
WITH NO SIGNIFICANT WEATHER AND/OR OBSTRUCTIONS TO VISIBILITY.

KYZ001>023-026-027-061>063-070>075-252000-
WESTERN AND SOUTH CENTRAL KENTUCKY

CITY           SKY/WX    TMP DP  RH WIND       PRES   REMARKS
PADUCAH        MOSUNNY   75  60  59 SW16G23   29.50F
HENDERSON      MOSUNNY   75  57  53 SW14      29.48F
OWENSBORO      PTSUNNY   76  62  61 SW15G25   29.50F
HOPKINSVILLE   MOSUNNY   77  62  58 S15G23    29.53F
BOWLING GREEN  PTSUNNY   77  62  59 SW15G22   29.55F
GLASGOW        PTSUNNY   73  60  63 SW9G20    29.55F
$$

KYZ024-025-028>034-038-045-046-053-252000-
NORTH CENTRAL KENTUCKY

CITY           SKY/WX    TMP DP  RH WIND       PRES   REMARKS
LOUISVILLE/SDF CLOUDY    58  54  86 NE7       29.56F
LOUISVILLE/LOU CLOUDY    57  54  89 VRB3      29.57F
FORT KNOX      CLOUDY    66  60  79 VRB3      29.52F
$$

KYZ035>037-039>044-047>052-055>060-089>105-252000-
NORTHEAST KENTUCKY

CITY           SKY/WX    TMP DP  RH WIND       PRES   REMARKS
LEXINGTON      CLOUDY    58  55  90 E8        29.57F
COVINGTON      HVY RAIN  47  45  93 NE15      29.63F FOG
FRANKFORT      CLOUDY    55  52  89 MISG      29.57F
$$

KYZ054-064>069-076>088-106>120-252000-
SOUTHEAST KENTUCKY

CITY           SKY/WX    TMP DP  RH WIND       PRES   REMARKS
JACKSON        CLOUDY    59  54  83 VRB3      29.60F
LONDON         PTSUNNY   73  55  53 S14       29.59F
SOMERSET       PTSUNNY   70  57  64 S9        29.57F
MIDDLESBORO    CLOUDY    65  56  74 SE9       29.65F
MONTICELLO     CLEAR     76  60  57 SW15      29.59F
$$



USA.gov is the U.S. government's official web portal to all federal, state and local government web resources and services.